AMV119 EPWA-LROP

Flight info

Callsign AMV119
Flight time 1h 23m
Altitude 36000
Route XIMBA N195 VENES M857 PODAN/N0449F370 DCT ROBTU DCT KENIN DCT KARIL DCT DENAK
Aircraft A320/M-SDE3FGHIRWY/LB1

Departure

Time 2026-05-03 21:11
Airport Warsaw Chopin Airport (EPWA)

Arrival

Time 2026-05-03 22:34
Airport Bucharest Henri Coandă International Airport (LROP)
Time Latitude Longitude Altitude Speed Heading
2026-05-03 20:43 52.17095 20.97066 334 ft 0 kts 75°
2026-05-03 21:00 52.17093 20.97052 339 ft 4 kts 75°
2026-05-03 21:01 52.17086 20.97010 335 ft 3 kts 75°
2026-05-03 21:01 52.17079 20.96980 336 ft 4 kts 56°
2026-05-03 21:01 52.17066 20.96946 335 ft 4 kts 36°
2026-05-03 21:01 52.17045 20.96940 334 ft 4 kts 336°
2026-05-03 21:02 52.17022 20.96959 336 ft 4 kts 332°
2026-05-03 21:02 52.17018 20.96962 334 ft 0 kts 332°
2026-05-03 21:04 52.17032 20.96950 335 ft 5 kts 332°
2026-05-03 21:04 52.17061 20.96925 334 ft 4 kts 332°
2026-05-03 21:04 52.17086 20.96902 335 ft 7 kts 332°
2026-05-03 21:05 52.17141 20.96855 338 ft 9 kts 330°
2026-05-03 21:05 52.17155 20.96779 338 ft 7 kts 259°
2026-05-03 21:05 52.17138 20.96716 337 ft 6 kts 242°
2026-05-03 21:05 52.17147 20.96619 336 ft 17 kts 314°
2026-05-03 21:06 52.17246 20.96516 337 ft 16 kts 328°
2026-05-03 21:06 52.17339 20.96437 338 ft 14 kts 329°
2026-05-03 21:06 52.17443 20.96350 336 ft 21 kts 328°
2026-05-03 21:06 52.17575 20.96238 338 ft 21 kts 331°
2026-05-03 21:07 52.17704 20.96124 335 ft 21 kts 331°
2026-05-03 21:07 52.17821 20.95972 336 ft 22 kts 305°
2026-05-03 21:07 52.17893 20.95784 335 ft 15 kts 294°
2026-05-03 21:07 52.17893 20.95736 335 ft 0 kts 251°
2026-05-03 21:09 52.17884 20.95700 333 ft 6 kts 245°
2026-05-03 21:09 52.17843 20.95619 334 ft 11 kts 206°
2026-05-03 21:10 52.17803 20.95637 336 ft 0 kts 156°
2026-05-03 21:10 52.17798 20.95640 336 ft 7 kts 155°
2026-05-03 21:11 52.17519 20.95885 336 ft 82 kts 152°
2026-05-03 21:11 52.16851 20.96472 338 ft 137 kts 152°
2026-05-03 21:11 52.15918 20.97262 697 ft 154 kts 153°
2026-05-03 21:11 52.14947 20.98094 1257 ft 163 kts 155°
2026-05-03 21:12 52.13923 20.99028 1790 ft 176 kts 154°
2026-05-03 21:12 52.12880 21.00277 2234 ft 196 kts 149°
2026-05-03 21:12 52.11680 21.01420 2627 ft 206 kts 167°
2026-05-03 21:12 52.10214 21.01868 3013 ft 225 kts 181°
2026-05-03 21:13 52.08620 21.02121 3750 ft 236 kts 176°
2026-05-03 21:13 52.06941 21.02520 4290 ft 255 kts 175°
2026-05-03 21:13 52.05157 21.02992 4851 ft 263 kts 174°
2026-05-03 21:13 52.03345 21.03530 5615 ft 266 kts 173°
2026-05-03 21:14 52.01524 21.04290 6478 ft 275 kts 162°
2026-05-03 21:14 51.99823 21.05801 7298 ft 283 kts 149°
2026-05-03 21:14 51.98178 21.07593 8195 ft 285 kts 149°
2026-05-03 21:14 51.96529 21.09402 9098 ft 287 kts 149°
2026-05-03 21:15 51.94868 21.11225 9988 ft 289 kts 149°
2026-05-03 21:15 51.93193 21.13052 10780 ft 292 kts 149°
2026-05-03 21:15 51.91487 21.14899 11242 ft 309 kts 149°
2026-05-03 21:15 51.89625 21.16902 11482 ft 333 kts 149°
2026-05-03 21:16 51.87632 21.19044 11666 ft 356 kts 149°
2026-05-03 21:16 51.85517 21.21326 12020 ft 371 kts 148°
2026-05-03 21:16 51.83358 21.23664 12654 ft 376 kts 148°
2026-05-03 21:16 51.81167 21.26036 13337 ft 381 kts 148°
2026-05-03 21:17 51.78951 21.28433 13990 ft 386 kts 148°
2026-05-03 21:17 51.77474 21.30029 14389 ft 388 kts 148°
2026-05-03 21:17 51.74478 21.33251 15189 ft 393 kts 148°
2026-05-03 21:17 51.72193 21.35701 15758 ft 397 kts 148°
2026-05-03 21:18 51.69879 21.38176 16328 ft 401 kts 148°
2026-05-03 21:18 51.67542 21.40671 16884 ft 405 kts 148°
2026-05-03 21:18 51.65185 21.43183 17430 ft 409 kts 148°
2026-05-03 21:18 51.62768 21.45644 17975 ft 412 kts 150°
2026-05-03 21:19 51.60301 21.48036 18493 ft 416 kts 151°
2026-05-03 21:19 51.57798 21.50393 18961 ft 419 kts 151°
2026-05-03 21:19 51.55257 21.52764 19433 ft 423 kts 151°
2026-05-03 21:19 51.52745 21.55118 19899 ft 426 kts 151°
2026-05-03 21:20 51.50187 21.57530 20364 ft 429 kts 150°
2026-05-03 21:20 51.47611 21.59975 20824 ft 432 kts 150°
2026-05-03 21:20 51.45025 21.62447 21273 ft 435 kts 150°
2026-05-03 21:20 51.42416 21.64944 21706 ft 438 kts 150°
2026-05-03 21:21 51.39786 21.67460 22141 ft 441 kts 149°
2026-05-03 21:21 51.37141 21.69986 22567 ft 444 kts 149°
2026-05-03 21:21 51.34479 21.72526 22992 ft 447 kts 149°
2026-05-03 21:21 51.31797 21.75078 23398 ft 450 kts 149°
2026-05-03 21:22 51.29132 21.77609 23760 ft 453 kts 149°
2026-05-03 21:22 51.26383 21.80212 24114 ft 455 kts 149°
2026-05-03 21:22 51.23686 21.82756 24466 ft 457 kts 149°
2026-05-03 21:22 51.20946 21.85338 24830 ft 459 kts 149°
2026-05-03 21:23 51.18114 21.87752 25154 ft 461 kts 159°
2026-05-03 21:23 51.15034 21.89127 25478 ft 462 kts 171°
2026-05-03 21:23 51.11821 21.89521 25776 ft 464 kts 181°
2026-05-03 21:23 51.08597 21.89162 26085 ft 465 kts 189°
2026-05-03 21:24 51.05401 21.88304 26384 ft 467 kts 191°
2026-05-03 21:24 51.02186 21.87429 26688 ft 469 kts 190°
2026-05-03 21:24 50.99006 21.86574 26981 ft 471 kts 190°
2026-05-03 21:24 50.95769 21.85700 27273 ft 473 kts 190°
2026-05-03 21:25 50.92512 21.84810 27553 ft 475 kts 190°
2026-05-03 21:25 50.89259 21.83911 27930 ft 475 kts 190°
2026-05-03 21:25 50.86002 21.83006 28352 ft 474 kts 190°
2026-05-03 21:25 50.82757 21.82099 28768 ft 473 kts 190°
2026-05-03 21:26 50.79519 21.81191 29191 ft 473 kts 190°
2026-05-03 21:26 50.76323 21.80299 29602 ft 472 kts 190°
2026-05-03 21:26 50.73093 21.79401 30020 ft 471 kts 190°
2026-05-03 21:26 50.69866 21.78506 30383 ft 471 kts 190°
2026-05-03 21:27 50.66643 21.77614 30721 ft 470 kts 190°
2026-05-03 21:27 50.63417 21.76720 31060 ft 470 kts 190°
2026-05-03 21:27 50.60204 21.75832 31412 ft 469 kts 190°
2026-05-03 21:27 50.56988 21.74946 31767 ft 468 kts 190°
2026-05-03 21:28 50.53785 21.74069 32126 ft 467 kts 190°
2026-05-03 21:28 50.50581 21.73199 32484 ft 466 kts 190°
2026-05-03 21:28 50.47429 21.72345 32848 ft 465 kts 190°
2026-05-03 21:28 50.44246 21.71484 33184 ft 465 kts 190°
2026-05-03 21:29 50.41058 21.70613 33519 ft 465 kts 190°
2026-05-03 21:29 50.37876 21.69737 33871 ft 464 kts 190°
2026-05-03 21:29 50.34704 21.68866 34195 ft 463 kts 190°
2026-05-03 21:29 50.31525 21.67997 34507 ft 462 kts 190°
2026-05-03 21:30 50.28359 21.67133 34808 ft 462 kts 190°
2026-05-03 21:30 50.25191 21.66268 35056 ft 463 kts 190°
2026-05-03 21:30 50.22064 21.65420 35304 ft 463 kts 189°
2026-05-03 21:30 50.18886 21.64562 35534 ft 463 kts 189°
2026-05-03 21:31 50.15708 21.63705 35781 ft 463 kts 189°
2026-05-03 21:31 50.12532 21.62848 36043 ft 463 kts 189°
2026-05-03 21:31 50.09359 21.61992 36290 ft 462 kts 189°
2026-05-03 21:31 50.06195 21.61143 36544 ft 462 kts 189°
2026-05-03 21:32 50.03028 21.60295 36795 ft 461 kts 189°
2026-05-03 21:32 49.99862 21.59448 37012 ft 462 kts 189°
2026-05-03 21:32 49.93499 21.57744 37087 ft 466 kts 189°
2026-05-03 21:33 49.87142 21.56040 37092 ft 467 kts 189°
2026-05-03 21:33 49.80728 21.54329 37095 ft 467 kts 189°
2026-05-03 21:34 49.74318 21.52629 37098 ft 468 kts 189°
2026-05-03 21:34 49.67941 21.50937 37106 ft 468 kts 189°
2026-05-03 21:35 49.61517 21.49239 37106 ft 468 kts 189°
2026-05-03 21:35 49.55090 21.47552 37113 ft 469 kts 189°
2026-05-03 21:36 49.48659 21.45853 37119 ft 469 kts 189°
2026-05-03 21:36 49.42171 21.45325 37119 ft 467 kts 172°
2026-05-03 21:37 49.35968 21.47811 37130 ft 463 kts 154°
2026-05-03 21:37 49.30157 21.52055 37129 ft 463 kts 152°
2026-05-03 21:38 49.24334 21.56301 37119 ft 464 kts 152°
2026-05-03 21:38 49.18500 21.60526 37122 ft 464 kts 152°
2026-05-03 21:39 49.12701 21.64723 37128 ft 464 kts 152°
2026-05-03 21:39 49.06867 21.68945 37144 ft 464 kts 152°
2026-05-03 21:40 49.01029 21.73160 37143 ft 464 kts 152°
2026-05-03 21:40 48.95187 21.77355 37147 ft 464 kts 152°
2026-05-03 21:41 48.89281 21.81154 37145 ft 467 kts 162°
2026-05-03 21:41 48.82874 21.82883 37144 ft 469 kts 170°
2026-05-03 21:42 48.76412 21.84244 37144 ft 469 kts 170°
2026-05-03 21:42 48.69955 21.85616 37144 ft 469 kts 170°
2026-05-03 21:43 48.63540 21.86985 37144 ft 469 kts 170°
2026-05-03 21:43 48.57077 21.88349 37142 ft 469 kts 170°
2026-05-03 21:44 48.50618 21.89704 37137 ft 469 kts 170°
2026-05-03 21:44 48.44162 21.91059 37138 ft 469 kts 170°
2026-05-03 21:45 48.37785 21.92701 37143 ft 466 kts 161°
2026-05-03 21:45 48.31908 21.96621 37141 ft 461 kts 146°
2026-05-03 21:46 48.26445 22.01647 37153 ft 461 kts 146°
2026-05-03 21:46 48.20965 22.06647 37152 ft 461 kts 146°
2026-05-03 21:47 48.15511 22.11609 37158 ft 462 kts 146°
2026-05-03 21:47 48.10022 22.16594 37159 ft 462 kts 146°
2026-05-03 21:48 48.04531 22.21583 37164 ft 461 kts 146°
2026-05-03 21:48 47.99049 22.26552 37175 ft 461 kts 146°
2026-05-03 21:49 47.93596 22.31472 37166 ft 461 kts 146°
2026-05-03 21:49 47.88104 22.36409 37173 ft 461 kts 146°
2026-05-03 21:50 47.82609 22.41330 37167 ft 461 kts 146°
2026-05-03 21:50 47.77542 22.47053 37181 ft 455 kts 130°
2026-05-03 21:51 47.73167 22.53839 37175 ft 455 kts 130°
2026-05-03 21:51 47.68799 22.60555 37176 ft 455 kts 130°
2026-05-03 21:52 47.64392 22.67305 37184 ft 455 kts 130°
2026-05-03 21:52 47.59981 22.74037 37181 ft 455 kts 131°
2026-05-03 21:53 47.55571 22.80751 37184 ft 455 kts 130°
2026-05-03 21:53 47.51157 22.87476 37186 ft 455 kts 130°
2026-05-03 21:54 47.46768 22.94144 37189 ft 456 kts 131°
2026-05-03 21:54 47.42344 23.00840 37192 ft 456 kts 131°
2026-05-03 21:55 47.37909 23.07537 37217 ft 456 kts 130°
2026-05-03 21:55 47.33483 23.14224 37211 ft 456 kts 130°
2026-05-03 21:56 47.29079 23.20853 37207 ft 456 kts 130°
2026-05-03 21:56 47.24631 23.27514 37203 ft 456 kts 131°
2026-05-03 21:57 47.20185 23.34158 37219 ft 456 kts 130°
2026-05-03 21:57 47.15741 23.40780 37214 ft 455 kts 130°
2026-05-03 21:58 47.11285 23.47397 37209 ft 455 kts 130°
2026-05-03 21:58 47.06867 23.53947 37198 ft 455 kts 130°
2026-05-03 21:59 47.02415 23.60540 37190 ft 455 kts 130°
2026-05-03 21:59 46.97961 23.67122 37201 ft 455 kts 130°
2026-05-03 22:00 46.93500 23.73685 37189 ft 454 kts 130°
2026-05-03 22:00 46.89080 23.80182 37185 ft 454 kts 130°
2026-05-03 22:01 46.84620 23.86707 37184 ft 453 kts 130°
2026-05-03 22:01 46.80163 23.93212 37201 ft 453 kts 130°
2026-05-03 22:02 46.75714 23.99717 37197 ft 453 kts 130°
2026-05-03 22:02 46.71294 24.06156 37199 ft 452 kts 130°
2026-05-03 22:03 46.66834 24.12623 37194 ft 453 kts 130°
2026-05-03 22:03 46.62360 24.19085 37211 ft 453 kts 130°
2026-05-03 22:04 46.57883 24.25535 37205 ft 453 kts 130°
2026-05-03 22:04 46.53441 24.31929 37198 ft 452 kts 130°
2026-05-03 22:05 46.48979 24.38358 37182 ft 452 kts 130°
2026-05-03 22:05 46.44510 24.44775 37176 ft 452 kts 130°
2026-05-03 22:06 46.40029 24.51171 37197 ft 452 kts 130°
2026-05-03 22:06 46.35579 24.57508 37195 ft 452 kts 130°
2026-05-03 22:07 46.31102 24.63876 37186 ft 452 kts 130°
2026-05-03 22:07 46.26609 24.70259 37192 ft 452 kts 130°
2026-05-03 22:08 46.22117 24.76628 37198 ft 453 kts 130°
2026-05-03 22:08 46.17619 24.82988 37194 ft 453 kts 131°
2026-05-03 22:09 46.13137 24.89288 37190 ft 453 kts 131°
2026-05-03 22:10 46.06356 24.98806 37219 ft 454 kts 131°
2026-05-03 22:10 46.01839 25.05138 37214 ft 453 kts 131°
2026-05-03 22:11 45.97315 25.11461 37206 ft 453 kts 131°
2026-05-03 22:11 45.92820 25.17731 37204 ft 453 kts 131°
2026-05-03 22:12 45.88300 25.24029 37218 ft 453 kts 131°
2026-05-03 22:12 45.83819 25.30380 37213 ft 452 kts 130°
2026-05-03 22:13 45.79291 25.36653 37187 ft 453 kts 132°
2026-05-03 22:13 45.74733 25.42800 37176 ft 453 kts 132°
2026-05-03 22:14 45.70166 25.49028 37205 ft 453 kts 131°
2026-05-03 22:14 45.65625 25.55293 37220 ft 453 kts 132°
2026-05-03 22:15 45.61085 25.61540 37068 ft 453 kts 132°
2026-05-03 22:15 45.58843 25.64612 36814 ft 452 kts 132°
2026-05-03 22:15 45.56576 25.67717 36165 ft 453 kts 132°
2026-05-03 22:15 45.54294 25.70837 35342 ft 456 kts 131°
2026-05-03 22:16 45.52007 25.73953 34460 ft 453 kts 131°
2026-05-03 22:16 45.49743 25.77023 33523 ft 446 kts 132°
2026-05-03 22:16 45.47489 25.80073 32596 ft 449 kts 131°
2026-05-03 22:16 45.45213 25.83156 31584 ft 453 kts 130°
2026-05-03 22:17 45.42927 25.86256 30621 ft 456 kts 130°
2026-05-03 22:17 45.40657 25.89340 29458 ft 457 kts 129°
2026-05-03 22:17 45.38384 25.92418 28305 ft 446 kts 129°
2026-05-03 22:17 45.36166 25.95408 27220 ft 433 kts 129°
2026-05-03 22:18 45.33984 25.98353 26055 ft 435 kts 129°
2026-05-03 22:18 45.31795 26.01317 24953 ft 434 kts 129°
2026-05-03 22:18 45.29608 26.04271 23862 ft 431 kts 129°
2026-05-03 22:18 45.27453 26.07164 22723 ft 424 kts 129°
2026-05-03 22:19 45.25329 26.10013 21924 ft 417 kts 129°
2026-05-03 22:19 45.23228 26.12840 21126 ft 415 kts 129°
2026-05-03 22:19 45.21139 26.15654 20337 ft 414 kts 129°
2026-05-03 22:19 45.19083 26.18421 19558 ft 413 kts 130°
2026-05-03 22:20 45.16995 26.21221 18792 ft 412 kts 130°
2026-05-03 22:20 45.14913 26.24005 17982 ft 411 kts 130°
2026-05-03 22:20 45.12837 26.26773 17229 ft 408 kts 131°
2026-05-03 22:20 45.10775 26.29514 16504 ft 405 kts 131°
2026-05-03 22:21 45.08730 26.32234 15810 ft 401 kts 131°
2026-05-03 22:21 45.06705 26.34930 15120 ft 399 kts 131°
2026-05-03 22:21 45.04693 26.37605 14459 ft 395 kts 131°
2026-05-03 22:21 45.02725 26.40225 13817 ft 392 kts 131°
2026-05-03 22:22 45.00680 26.42756 13145 ft 392 kts 137°
2026-05-03 22:22 44.98404 26.44774 12510 ft 382 kts 148°
2026-05-03 22:22 44.96015 26.46372 11882 ft 379 kts 149°
2026-05-03 22:22 44.93630 26.47954 11327 ft 377 kts 150°
2026-05-03 22:23 44.91342 26.49466 11144 ft 349 kts 150°
2026-05-03 22:23 44.89230 26.50852 11014 ft 321 kts 150°
2026-05-03 22:23 44.87266 26.52144 10719 ft 304 kts 149°
2026-05-03 22:23 44.85377 26.53395 10469 ft 298 kts 149°
2026-05-03 22:24 44.83502 26.54642 10222 ft 297 kts 149°
2026-05-03 22:24 44.81665 26.55865 10046 ft 297 kts 149°
2026-05-03 22:24 44.79804 26.57104 9901 ft 295 kts 149°
2026-05-03 22:24 44.77947 26.58343 9770 ft 295 kts 149°
2026-05-03 22:25 44.76096 26.59575 9646 ft 294 kts 149°
2026-05-03 22:25 44.74244 26.60806 9495 ft 293 kts 149°
2026-05-03 22:25 44.72412 26.62015 9360 ft 284 kts 150°
2026-05-03 22:25 44.70667 26.63100 9222 ft 267 kts 156°
2026-05-03 22:26 44.68863 26.63712 9052 ft 269 kts 168°
2026-05-03 22:26 44.67027 26.63977 8716 ft 267 kts 171°
2026-05-03 22:26 44.65169 26.64117 8322 ft 272 kts 183°
2026-05-03 22:26 44.63733 26.63699 8033 ft 272 kts 199°
2026-05-03 22:27 44.62092 26.62417 7642 ft 270 kts 220°
2026-05-03 22:27 44.60868 26.60463 7231 ft 263 kts 242°
2026-05-03 22:27 44.60191 26.58101 6757 ft 260 kts 263°
2026-05-03 22:27 44.59970 26.55584 6109 ft 260 kts 269°
2026-05-03 22:28 44.59801 26.53065 5586 ft 257 kts 268°
2026-05-03 22:28 44.59627 26.50595 5245 ft 251 kts 267°
2026-05-03 22:28 44.59458 26.48246 4945 ft 240 kts 267°
2026-05-03 22:28 44.59293 26.45962 4647 ft 230 kts 267°
2026-05-03 22:29 44.59134 26.43770 4362 ft 221 kts 267°
2026-05-03 22:29 44.58982 26.41658 4101 ft 214 kts 266°
2026-05-03 22:29 44.58834 26.39616 3867 ft 206 kts 266°
2026-05-03 22:29 44.58690 26.37649 3602 ft 199 kts 266°
2026-05-03 22:30 44.58552 26.35752 3361 ft 192 kts 266°
2026-05-03 22:30 44.58418 26.33917 3128 ft 186 kts 266°
2026-05-03 22:30 44.58289 26.32156 2904 ft 181 kts 266°
2026-05-03 22:30 44.58162 26.30424 2687 ft 176 kts 266°
2026-05-03 22:31 44.58037 26.28736 2475 ft 171 kts 265°
2026-05-03 22:31 44.57919 26.27138 2277 ft 158 kts 266°
2026-05-03 22:31 44.57809 26.25647 2083 ft 149 kts 266°
2026-05-03 22:31 44.57705 26.24233 1917 ft 144 kts 265°
2026-05-03 22:32 44.57602 26.22849 1741 ft 142 kts 266°
2026-05-03 22:32 44.57501 26.21489 1583 ft 136 kts 266°
2026-05-03 22:32 44.57404 26.20178 1409 ft 134 kts 265°
2026-05-03 22:32 44.57307 26.18887 1238 ft 132 kts 266°
2026-05-03 22:33 44.57213 26.17626 1071 ft 131 kts 265°
2026-05-03 22:33 44.57115 26.16358 831 ft 130 kts 264°
2026-05-03 22:33 44.57020 26.15109 724 ft 129 kts 266°
2026-05-03 22:33 44.56933 26.13857 602 ft 129 kts 265°
2026-05-03 22:34 44.56841 26.12611 451 ft 128 kts 265°
2026-05-03 22:34 44.56775 26.11789 362 ft 128 kts 265°
2026-05-03 22:34 44.56688 26.10626 319 ft 102 kts 263°
2026-05-03 22:34 44.56646 26.10062 320 ft 15 kts 264°
2026-05-03 22:35 44.56637 26.09874 321 ft 27 kts 265°
2026-05-03 22:35 44.56613 26.09608 320 ft 28 kts 263°
2026-05-03 22:35 44.56591 26.09332 318 ft 29 kts 264°
2026-05-03 22:35 44.56571 26.09048 320 ft 29 kts 264°
2026-05-03 22:36 44.56558 26.08861 319 ft 23 kts 264°
2026-05-03 22:36 44.56595 26.08659 322 ft 22 kts 308°
2026-05-03 22:36 44.56725 26.08577 320 ft 18 kts
2026-05-03 22:36 44.56853 26.08558 319 ft 19 kts 354°
2026-05-03 22:37 44.56895 26.08470 320 ft 12 kts 270°
2026-05-03 22:37 44.56966 26.08387 320 ft 8 kts 326°
2026-05-03 22:37 44.57002 26.08324 320 ft 6 kts 301°
2026-05-03 22:37 44.57003 26.08322 320 ft 0 kts 301°
2026-05-03 22:38 44.57006 26.08317 320 ft 3 kts 309°
2026-05-03 22:38 44.57007 26.08315 320 ft 0 kts 309°
2026-05-03 22:38 44.57017 26.08297 320 ft 2 kts 307°
2026-05-03 22:39 44.57025 26.08282 320 ft 1 kts 307°
2026-05-03 22:39 44.57029 26.08275 319 ft 1 kts 308°
2026-05-03 22:39 44.57037 26.08261 318 ft 2 kts 309°
2026-05-03 22:39 44.57042 26.08253 320 ft 1 kts 309°
2026-05-03 22:40 44.57043 26.08252 320 ft 0 kts 309°
2026-05-03 22:44 44.57216 26.17663 1032 ft 131 kts 265°
2026-05-03 22:44 44.57045 26.15492 737 ft 129 kts 265°
2026-05-03 22:44 44.56964 26.14241 652 ft 129 kts 265°
2026-05-03 22:44 44.56868 26.12994 489 ft 128 kts 266°
2026-05-03 22:45 44.56773 26.11766 360 ft 128 kts 265°
2026-05-03 22:45 44.56687 26.10611 320 ft 100 kts 263°
2026-05-03 22:45 44.56770 26.11729 350 ft 127 kts 265°
2026-05-03 22:45 44.56800 26.12101 393 ft 128 kts 264°
2026-05-03 22:46 44.56712 26.10894 322 ft 115 kts 264°
2026-05-03 22:46 44.56715 26.10931 321 ft 116 kts 265°
2026-05-03 22:46 44.56867 26.12984 494 ft 128 kts 266°
2026-05-03 22:46 44.56771 26.11740 354 ft 128 kts 265°
2026-05-03 22:47 44.56686 26.10602 321 ft 100 kts 263°
2026-05-03 22:47 44.57123 26.16464 837 ft 130 kts 265°
2026-05-03 22:47 44.57060 26.15686 758 ft 129 kts 265°
2026-05-03 22:47 44.56978 26.14436 676 ft 129 kts 265°
2026-05-03 22:48 44.56881 26.13187 516 ft 128 kts 266°
2026-05-03 22:48 44.56787 26.11945 376 ft 128 kts 264°
2026-05-03 22:48 44.56702 26.10760 320 ft 103 kts 264°